• Em Portugal
  • Lista de países
  • Para 7 dias
  • Temperatura da água
  • Mapas de satélite
  • Mapa do tempo
  • Widgets de tempo
  • user-avatar
    Iniciar Sessão

    Previsão horária em Ali Bayramli

    Hoje, 17 Agosto, Sexta-feira

    Tempo Temperatura Precipitação Vento Pressão Humidade
    00:00 +28°C° 0 mm 1 m/s 757 mmHg 54%
    01:00 +27°C° 0 mm 1 m/s 756 mmHg 55%
    02:00 +27°C° 0 mm 1 m/s 756 mmHg 56%
    03:00 +27°C° 0 mm 1 m/s 756 mmHg 58%
    04:00 +27°C° 0 mm 1 m/s 756 mmHg 56%
    05:00 +27°C° 0 mm 1 m/s 756 mmHg 55%
    06:00 +28°C° 0 mm 1 m/s 756 mmHg 53%
    07:00 +29°C° 0 mm 1 m/s 756 mmHg 49%
    08:00 +30°C° 0 mm 1 m/s 756 mmHg 44%
    09:00 +32°C° 0 mm 1 m/s 756 mmHg 40%
    10:00 +33°C° 0 mm 1 m/s 755 mmHg 37%
    11:00 +34°C° 0 mm 1 m/s 755 mmHg 34%
    12:00 +35°C° 0 mm 1 m/s 755 mmHg 31%
    13:00 +37°C° 0 mm 2 m/s 754 mmHg 30%
    14:00 +37°C° 0 mm 3 m/s 754 mmHg 30%
    15:00 +38°C° 0 mm 4 m/s 753 mmHg 29%
    16:00 +37°C° 0 mm 4 m/s 753 mmHg 32%
    17:00 +36°C° 0 mm 5 m/s 753 mmHg 35%
    18:00 +34°C° 0 mm 5 m/s 753 mmHg 37%
    19:00 +33°C° 0 mm 5 m/s 753 mmHg 40%
    20:00 +32°C° 0 mm 4 m/s 753 mmHg 43%
    21:00 +30°C° 0 mm 4 m/s 754 mmHg 45%
    22:00 +30°C° 0 mm 3 m/s 753 mmHg 46%
    23:00 +30°C° 0 mm 3 m/s 753 mmHg 48%

    Amanhã, 18 Agosto, Sábado

    Tempo Temperatura Precipitação Vento Pressão Humidade
    00:00 +29°C° 0 mm 2 m/s 753 mmHg 49%
    01:00 +29°C° 0 mm 2 m/s 753 mmHg 50%
    02:00 +28°C° 0 mm 2 m/s 753 mmHg 51%
    03:00 +28°C° 0 mm 2 m/s 753 mmHg 52%
    04:00 +28°C° 0 mm 2 m/s 753 mmHg 52%
    05:00 +28°C° 0 mm 2 m/s 753 mmHg 52%
    06:00 +28°C° 0 mm 2 m/s 753 mmHg 52%
    07:00 +30°C° 0 mm 2 m/s 753 mmHg 47%
    08:00 +31°C° 0 mm 1 m/s 753 mmHg 43%
    09:00 +33°C° 0 mm 1 m/s 753 mmHg 39%
    10:00 +35°C° 0 mm 2 m/s 752 mmHg 36%
    11:00 +36°C° 0 mm 2 m/s 752 mmHg 33%
    12:00 +37°C° 0 mm 3 m/s 752 mmHg 31%
    13:00 +38°C° 0 mm 4 m/s 752 mmHg 30%
    14:00 +39°C° 0 mm 5 m/s 751 mmHg 29%
    15:00 +40°C° 0 mm 6 m/s 751 mmHg 28%
    16:00 +39°C° 0 mm 7 m/s 751 mmHg 29%
    17:00 +38°C° 0 mm 7 m/s 751 mmHg 30%
    18:00 +37°C° 0 mm 8 m/s 751 mmHg 31%
    19:00 +35°C° 0 mm 8 m/s 751 mmHg 32%
    20:00 +34°C° 0 mm 8 m/s 752 mmHg 34%
    21:00 +33°C° 0 mm 8 m/s 752 mmHg 35%
    22:00 +33°C° 0 mm 8 m/s 752 mmHg 36%
    23:00 +32°C° 0 mm 7 m/s 752 mmHg 37%

    Depois de amanhã, 19 Agosto, Domingo

    Tempo Temperatura Precipitação Vento Pressão Humidade
    00:00 +32°C° 0 mm 6 m/s 752 mmHg 38%
    01:00 +30°C° 0 mm 6 m/s 752 mmHg 40%
    02:00 +30°C° 0 mm 5 m/s 752 mmHg 42%
    03:00 +29°C° 0 mm 5 m/s 752 mmHg 43%
    04:00 +29°C° 0 mm 5 m/s 752 mmHg 44%
    05:00 +29°C° 0 mm 5 m/s 752 mmHg 44%
    06:00 +29°C° 0 mm 5 m/s 752 mmHg 44%
    07:00 +30°C° 0 mm 5 m/s 753 mmHg 40%
    08:00 +33°C° 0 mm 5 m/s 753 mmHg 36%
    09:00 +34°C° 0 mm 6 m/s 753 mmHg 32%
    10:00 +35°C° 0 mm 7 m/s 753 mmHg 30%
    11:00 +36°C° 0 mm 7 m/s 753 mmHg 28%
    12:00 +38°C° 0 mm 8 m/s 753 mmHg 27%
    13:00 +38°C° 0 mm 10 m/s 753 mmHg 27%
    14:00 +38°C° 0 mm 11 m/s 753 mmHg 27%
    15:00 +37°C° 0 mm 12 m/s 753 mmHg 27%
    16:00 +36°C° 0 mm 13 m/s 753 mmHg 30%
    17:00 +34°C° 0 mm 13 m/s 754 mmHg 32%
    18:00 +32°C° 0 mm 13 m/s 754 mmHg 35%
    19:00 +32°C° 0 mm 12 m/s 755 mmHg 39%
    20:00 +31°C° 0 mm 12 m/s 755 mmHg 43%
    21:00 +29°C° 0 mm 11 m/s 756 mmHg 47%
    22:00 +28°C° 0 mm 11 m/s 756 mmHg 49%
    23:00 +28°C° 0 mm 10 m/s 756 mmHg 51%

    20 Agosto, Segunda-feira

    Tempo Temperatura Precipitação Vento Pressão Humidade
    00:00 +27°C° 0 mm 10 m/s 756 mmHg 52%
    01:00 +27°C° 0 mm 9 m/s 756 mmHg 53%
    02:00 +26°C° 0 mm 9 m/s 757 mmHg 54%
    03:00 +26°C° 0 mm 8 m/s 757 mmHg 55%
    04:00 +26°C° 0 mm 8 m/s 757 mmHg 54%
    05:00 +26°C° 0 mm 8 m/s 757 mmHg 53%
    06:00 +26°C° 0 mm 8 m/s 758 mmHg 53%
    07:00 +27°C° 0 mm 7 m/s 758 mmHg 48%
    08:00 +28°C° 0 mm 7 m/s 758 mmHg 44%
    09:00 +29°C° 0 mm 7 m/s 759 mmHg 39%
    10:00 +30°C° 0 mm 7 m/s 759 mmHg 37%
    11:00 +32°C° 0 mm 7 m/s 759 mmHg 36%
    12:00 +32°C° 0 mm 7 m/s 758 mmHg 34%
    13:00 +32°C° 0 mm 7 m/s 758 mmHg 34%
    14:00 +32°C° 0 mm 7 m/s 758 mmHg 35%
    15:00 +32°C° 0 mm 8 m/s 758 mmHg 36%
    16:00 +30°C° 0 mm 7 m/s 758 mmHg 40%
    17:00 +29°C° 0 mm 7 m/s 758 mmHg 43%
    18:00 +28°C° 0 mm 7 m/s 758 mmHg 47%
    19:00 +28°C° 0 mm 6 m/s 759 mmHg 50%
    20:00 +27°C° 0 mm 5 m/s 759 mmHg 53%
    21:00 +26°C° 0 mm 5 m/s 759 mmHg 56%
    22:00 +26°C° 0 mm 4 m/s 759 mmHg 57%
    23:00 +26°C° 0 mm 4 m/s 759 mmHg 58%

    21 Agosto, Terça-feira

    Tempo Temperatura Precipitação Vento Pressão Humidade
    00:00 +25°C° 0 mm 3 m/s 759 mmHg 59%
    01:00 +25°C° 0 mm 3 m/s 759 mmHg 60%
    02:00 +25°C° 0 mm 2 m/s 759 mmHg 61%
    03:00 +24°C° 0 mm 2 m/s 758 mmHg 62%
    04:00 +25°C° 0 mm 2 m/s 759 mmHg 61%
    05:00 +25°C° 0 mm 2 m/s 759 mmHg 60%
    06:00 +25°C° 0 mm 2 m/s 759 mmHg 59%
    07:00 +26°C° 0 mm 2 m/s 759 mmHg 53%
    08:00 +28°C° 0 mm 2 m/s 759 mmHg 47%
    09:00 +29°C° 0 mm 2 m/s 759 mmHg 40%
    10:00 +30°C° 0 mm 3 m/s 759 mmHg 37%
    11:00 +33°C° 0 mm 3 m/s 758 mmHg 34%
    12:00 +34°C° 0 mm 4 m/s 758 mmHg 31%
    13:00 +34°C° 0 mm 5 m/s 758 mmHg 31%
    14:00 +35°C° 0 mm 6 m/s 758 mmHg 31%
    15:00 +35°C° 0 mm 6 m/s 757 mmHg 31%
    16:00 +34°C° 0 mm 6 m/s 757 mmHg 34%
    17:00 +33°C° 0 mm 6 m/s 758 mmHg 37%
    18:00 +32°C° 0 mm 7 m/s 758 mmHg 39%
    19:00 +30°C° 0 mm 6 m/s 758 mmHg 42%
    20:00 +29°C° 0 mm 6 m/s 758 mmHg 46%
    21:00 +28°C° 0 mm 5 m/s 759 mmHg 49%
    22:00 +28°C° 0 mm 5 m/s 758 mmHg 49%
    23:00 +28°C° 0 mm 4 m/s 758 mmHg 50%

    22 Agosto, Quarta-feira

    Tempo Temperatura Precipitação Vento Pressão Humidade
    00:00 +27°C° 0 mm 4 m/s 758 mmHg 50%
    01:00 +27°C° 0 mm 4 m/s 758 mmHg 49%
    02:00 +26°C° 0 mm 3 m/s 758 mmHg 48%
    03:00 +26°C° 0 mm 3 m/s 758 mmHg 47%
    04:00 +26°C° 0 mm 3 m/s 758 mmHg 46%
    05:00 +26°C° 0 mm 3 m/s 758 mmHg 44%
    06:00 +27°C° 0 mm 4 m/s 759 mmHg 43%
    07:00 +28°C° 0 mm 4 m/s 759 mmHg 39%
    08:00 +30°C° 0 mm 4 m/s 759 mmHg 36%
    09:00 +33°C° 0 mm 4 m/s 759 mmHg 33%
    10:00 +34°C° 0 mm 5 m/s 758 mmHg 32%
    11:00 +35°C° 0 mm 5 m/s 758 mmHg 32%
    12:00 +36°C° 0 mm 6 m/s 758 mmHg 31%
    13:00 +36°C° 0 mm 6 m/s 758 mmHg 30%
    14:00 +36°C° 0 mm 7 m/s 757 mmHg 29%
    15:00 +36°C° 0 mm 7 m/s 757 mmHg 28%
    16:00 +35°C° 0 mm 7 m/s 758 mmHg 28%
    17:00 +34°C° 0 mm 7 m/s 758 mmHg 29%
    18:00 +33°C° 0 mm 7 m/s 758 mmHg 29%
    19:00 +32°C° 0 mm 6 m/s 758 mmHg 30%
    20:00 +30°C° 0 mm 5 m/s 759 mmHg 31%
    21:00 +29°C° 0 mm 5 m/s 759 mmHg 33%
    22:00 +29°C° 0 mm 5 m/s 759 mmHg 34%
    23:00 +28°C° 0 mm 5 m/s 759 mmHg 35%
    Mostrar mais